RH
66 72 88 94 96 87 78 73 69 69 67 68 63 72 77 88 95 92 98 90 86 90 88 80 79 68 59 53 51 50 49 50 49 49 48 49 50 53 59 66 72 71 69
60 67 75 89 97 95 89 78 81 72 79 80 66 63 76 82 98 97 93 95 91 91 91 88 83 79 69 58 54 56 58 54 52 50 47 48 47 51 59 64 72 75 74
54 57 64 69 78 87 89 89 82 82 84 77 70 58 73 83 98 96 88 93 99 93 98 95 94 86 80 64 59 61 65 62 58 58 54 56 51 52 58 62 65 67 71
40 52 52 65 65 74 81 82 84 78 85 88 77 63 78 86 95 97 96 96 95 98 98 95 98 97 85 72 66 61 62 66 66 68 65 64 63 70 70 66 63 66 72
26 45 48 52 62 61 68 82 92 95 93 86 78 69 79 92 95 92 98 97 96 97 89 99 98 99 90 79 73 72 75 75 72 71 67 65 69 70 68 68 70 70 73
18 27 46 39 48 54 61 59 76 91 87 84 84 80 89 95 93 94 93 88 97 98 96 98 95 94 91 87 80 81 85 82 84 82 82 78 71 66 70 74 76 75 73
17 21 32 35 36 44 53 55 58 66 77 73 67 87 91 88 89 88 89 89 97 98 98 98 97 97 97 94 89 94 90 92 92 87 81 76 73 71 75 79 80 79 75
21 20 22 26 33 38 46 50 49 54 56 57 70 72 74 77 80 82 79 86 94 98 98 98 96 98 95 92 97 97 96 93 90 87 84 81 79 76 75 79 86 88 83
25 23 22 21 26 28 34 44 46 47 49 49 52 57 62 64 65 67 77 88 91 95 98 97 97 96 94 93 95 95 94 94 94 92 89 86 86 81 76 79 81 87 85
28 27 28 26 25 29 30 31 39 43 43 46 43 42 51 52 53 60 64 72 80 89 93 95 98 98 98 96 94 90 94 94 88 95 92 90 88 82 79 77 81 84 84
29 28 30 30 29 29 30 30 26 31 32 37 39 39 43 44 48 50 53 57 67 71 75 83 89 94 95 97 99 96 96 98 97 94 88 88 87 86 78 75 78 82 85
31 31 29 30 30 27 25 25 26 29 26 29 33 36 40 41 39 40 44 50 56 64 62 63 70 84 90 93 98 97 97 97 95 91 93 88 90 85 81 79 84 87 87
32 32 31 30 29 28 27 25 23 25 28 28 25 30 35 36 38 38 38 36 41 50 51 55 58 67 84 91 94 97 98 98 98 98 98 91 90 90 85 82 88 97 93
32 30 31 28 26 26 26 26 28 27 26 29 31 28 29 33 34 33 34 36 35 38 40 40 45 54 61 75 87 94 98 98 98 97 97 97 96 92 89 91 91 91 92
33 31 29 28 27 25 27 29 29 32 34 34 33 35 34 29 30 31 33 34 34 36 37 36 37 44 52 58 67 78 94 95 96 97 97 98 96 93 95 95 98 98 94
40 39 38 35 31 29 24 26 32 33 35 35 36 35 33 34 32 30 31 34 35 33 35 37 38 42 47 51 56 61 68 78 88 94 95 96 94 95 97 95 98 98 99
45 46 45 42 41 41 41 37 31 36 37 38 38 37 35 34 32 32 31 32 35 37 37 38 40 42 43 46 46 47 51 60 67 78 91 91 94 96 96 98 98 98 97
47 48 48 47 46 47 49 49 48 45 42 40 41 41 38 38 38 35 35 34 34 35 38 40 43 46 46 43 43 45 46 49 54 59 68 77 84 87 88 94 97 98 98
46 46 48 51 51 51 52 53 54 54 53 51 49 47 45 44 44 43 41 40 39 38 39 41 43 44 45 47 45 43 42 45 48 52 58 64 66 70 75 86 98 98 98
46 47 48 49 50 53 55 56 57 57 57 57 57 55 54 53 52 51 50 48 46 44 42 42 43 43 45 45 44 44 45 44 45 45 47 53 57 62 64 65 73 80 93
49 48 48 50 52 54 57 60 62 63 65 67 66 65 63 61 61 60 59 57 54 51 48 46 45 46 46 46 45 43 43 44 47 45 44 45 50 54 58 61 64 63 66
51 48 47 50 53 55 59 62 65 69 71 73 75 76 73 72 72 71 69 66 62 59 55 51 47 47 46 46 45 45 43 44 45 47 47 47 47 47 48 52 57 61 62
53 48 46 47 52 56 61 66 70 75 78 80 82 82 83 82 80 76 76 74 70 67 64 60 58 56 53 50 47 45 44 43 43 44 44 45 45 44 44 44 46 48 52
57 51 46 44 48 52 56 63 71 77 82 86 88 90 89 88 86 86 86 85 79 74 74 69 64 62 61 59 55 49 47 46 45 44 43 43 44 44 43 43 43 44 44
59 55 50 44 43 46 51 56 63 74 82 88 94 97 96 93 94 91 90 91 89 87 83 78 72 69 71 70 66 60 54 51 51 49 47 45 42 41 43 44 44 44 45
56 54 51 48 42 39 43 50 57 61 72 87 95 97 98 98 94 92 95 97 94 92 88 85 82 79 77 76 73 67 63 58 55 53 52 48 46 44 46 46 48 47 47